Location: Roland
(31.1349°N, 85.4372°W)
Time: 05:10:01
(UTC+00:00)

Courier 1B - Pass Details

Date: 21 April 2021
Orbit: 962 x 1209 km, 28.3° (Epoch: 07 May)

Event Time Altitude Azimuth Distance (km) Brightness Sun altitude
Rises 21:44:31 0° 274° (W) 3,642 11.6 30.9°
Reaches altitude 10° 21:47:15 10° 268° (W) 2,687 11.5 30.4°
Maximum altitude 21:53:24 48° 196° (SSW) 1,241 8.7 29.0°
Drops below altitude 10° 21:59:40 10° 124° (SE) 2,728 9.5 27.7°
Sets 22:02:27 0° 118° (ESE) 3,702 10.1 27.1°
